Content
SEND FEEDBACK

Daily
Averages
Monthly
Summary
France

BIARRITZ, FRANCE


Home > Europe > France
Elevation: 246 feet     Latitude: 43 28N     Longitude: 001 31W

WEATHER
 
SELECT A DAY
Number of Records: 202,507;   Date Range: 7/1/96 - 12/17/14
 
SHARE

PRINT THIS DATA

[ ← Previous Day ]
WEATHER ALMANAC - MARCH 14, 2013
[ Next Day → ]
[ °C ]   °F
Weather ElementAverageHighLow
Temperature40.8 °F46.4 °F (12:00 pm)33.8 °F (4:30 am)
Dewpoint33.8 °F39.2 °F (10:00 am)30.2 °F (5:30 pm)
Humidity77.4 %93 % (1:00 am)53 % (5:30 pm)
Barometer30.02 in30.09 in (9:00 pm)29.95 in (6:00 am)
Wind Speed5.3 mph13.8 mph (4:30 pm)
Weather ElementAverage
Visibility6 mi
Wind DirectionESE (129.2 °)

Weather ElementTotal
Precipitation---
Heating Degree Days24.9 (Base 65)
Averaged from 48 records on March 14, 2013
WEATHER CONDITIONS BREAKOUT
WIND DIRECTION BREAKOUT
WEATHER BY HOUR - MARCH 14, 2013
[ °C ]   °F
Local TimeTemperatureDewpointHumidityBarometerVisibilityWind DirectionWind SpeedGust SpeedPrecipitationEventsConditions
12:30 AM35.6 °F32.0 °F87 %30.01 in6.2 miESE (110°)3.5 mphOvercast
1:00 AM35.6 °F33.8 °F93 %30.01 in6.2 miVariable2.3 mphMostly Cloudy
1:30 AM35.6 °F33.8 °F93 %30.01 in6.2 miVariable3.5 mphOvercast
2:00 AM35.6 °F33.8 °F93 %30.01 in6.2 miVariable3.5 mphOvercast
2:30 AM35.6 °F33.8 °F93 %30.01 in6.2 miVariable3.5 mphOvercast
3:00 AM35.6 °F32.0 °F87 %30.01 in6.2 miSW (220°)3.5 mphOvercast
3:30 AM35.6 °F32.0 °F87 %30.01 in6.2 miVariable2.3 mphOvercast
4:00 AM37.4 °F32.0 °F81 %29.98 in6.2 miEast (80°)4.6 mphRainLight Rain
4:30 AM33.8 °F32.0 °F93 %29.98 in6.2 miSSW (210°)3.5 mphPartly Cloudy
5:00 AM33.8 °F32.0 °F93 %29.98 in6.2 miSW (220°)3.5 mphMostly Cloudy
5:30 AM33.8 °F32.0 °F93 %29.98 in6.2 miVariable3.5 mphScattered Clouds
6:00 AM33.8 °F32.0 °F93 %29.95 in6.2 miVariable3.5 mphMostly Cloudy
6:30 AM35.6 °F32.0 °F87 %29.98 in6.2 miSW (230°)3.5 mphSnowSnow Showers
7:00 AM37.4 °F33.8 °F87 %29.98 in3.1 miWNW (300°)5.8 mphRainLight Rain Showers
7:06 AM37.4 °F33.8 °F87 %29.98 in6.2 miVariable3.5 mphMostly Cloudy
7:30 AM35.6 °F33.8 °F93 %29.98 in5.0 miVariable3.5 mphMostly Cloudy
8:00 AM35.6 °F33.8 °F93 %29.98 in5.0 miSSE (160°)3.5 mphScattered Clouds
8:30 AM35.6 °F33.8 °F93 %29.98 in5.6 miVariable3.5 mphScattered Clouds
9:00 AM37.4 °F35.6 °F93 %30.01 in6.2 miVariable3.5 mphScattered Clouds
9:30 AM39.2 °F35.6 °F87 %30.01 in6.2 miVariable2.3 mphRainLight Rain
10:00 AM42.8 °F39.2 °F87 %30.01 in6.2 miVariable3.5 mphScattered Clouds
10:30 AM42.8 °F37.4 °F81 %30.01 in3.7 miVariable3.5 mphRainLight Rain
11:00 AM44.6 °F39.2 °F81 %30.01 in6.2 miNorth (10°)3.5 mphScattered Clouds
11:30 AM44.6 °F37.4 °F76 %30.01 in6.2 miVariable3.5 mphScattered Clouds
12:00 PM46.4 °F35.6 °F66 %30.01 in6.2 miNNW (330°)12.7 mphScattered Clouds
12:30 PM44.6 °F37.4 °F76 %30.01 in6.2 miNNE (30°)8.1 mphMostly Cloudy
1:00 PM42.8 °F37.4 °F81 %30.04 in6.2 miNE (40°)5.8 mphOvercast
1:30 PM41.0 °F35.6 °F81 %30.04 in6.2 miNNE (20°)9.2 mphOvercast
2:00 PM41.0 °F37.4 °F87 %30.01 in6.2 miVariable3.5 mphRainLight Rain Showers
2:30 PM42.8 °F37.4 °F81 %30.01 in6.2 miVariable3.5 mphRainLight Rain Showers
3:00 PM42.8 °F37.4 °F81 %30.01 in6.2 miVariable1.2 mphMostly Cloudy
3:30 PM44.6 °F37.4 °F76 %30.01 in6.2 miVariable2.3 mphOvercast
4:00 PM46.4 °F33.8 °F62 %30.01 in6.2 miNorth (350°)10.4 mphMostly Cloudy
4:30 PM46.4 °F35.6 °F66 %30.01 in6.2 miNorth (350°)13.8 mphMostly Cloudy
5:00 PM46.4 °F32.0 °F57 %30.04 in6.2 miNorth (350°)11.5 mphScattered Clouds
5:30 PM46.4 °F30.2 °F53 %30.04 in6.2 miNorth (350°)12.7 mphScattered Clouds
6:00 PM46.4 °F30.2 °F53 %30.04 in6.2 miNNW (330°)11.5 mphScattered Clouds
6:30 PM44.6 °F32.0 °F61 %30.04 in6.2 miNNW (340°)11.5 mphScattered Clouds
7:00 PM44.6 °F30.2 °F57 %30.06 in6.2 miNNW (340°)6.9 mphScattered Clouds
7:30 PM44.6 °F32.0 °F61 %30.06 in6.2 miNNW (340°)6.9 mphMostly Cloudy
8:00 PM44.6 °F32.0 °F61 %30.06 in6.2 miNNW (340°)6.9 mphMostly Cloudy
8:30 PM44.6 °F32.0 °F61 %30.06 in6.2 miVariable4.6 mphOvercast
9:00 PM44.6 °F32.0 °F61 %30.09 in6.2 miNNW (340°)5.8 mphMostly Cloudy
9:30 PM44.6 °F32.0 °F61 %30.09 in6.2 miNNW (340°)5.8 mphOvercast
10:00 PM44.6 °F32.0 °F61 %30.06 in6.2 miNorth (360°)4.6 mphOvercast
10:30 PM44.6 °F30.2 °F57 %30.06 in6.2 miNorth (10°)4.6 mphMostly Cloudy
11:00 PM44.6 °F30.2 °F57 %30.06 in6.2 miNNE (20°)4.6 mphOvercast
11:30 PM42.8 °F32.0 °F66 %30.09 in6.2 miEast (80°)3.5 mphOvercast
Hourly data recorded from LFBZ, located miles away from Biarritz, France







STORIES FROM OUR PARTNERS